This is the latest recevied weather packets stored in our database for station/object VK3CG. If no packets are shown the sender has not sent any weather packets the latest 10 day(s).
| Time | Temp. | Humidity | Pressure | Rain* | Wind** | Luminosity | Snow |
|---|---|---|---|---|---|---|---|
| 1777519839 | 21.11° C | 39% | 1037.3 hPa | 0 mm | - | 587 W/m² | - |
| 1777518935 | 20.56° C | 41% | 1037.3 hPa | 0 mm | - | 582 W/m² | - |
| 1777518034 | 20.56° C | 42% | 1037.6 hPa | 0 mm | - | 557 W/m² | - |
| 1777517135 | 20° C | 42% | 1037.9 hPa | 0 mm | - | 550 W/m² | - |
| 1777516240 | 19.44° C | 44% | 1038.1 hPa | 0 mm | - | 434 W/m² | - |
| 1777515328 | 20° C | 43% | 1038.5 hPa | 0 mm | - | 390 W/m² | - |
| 1777514435 | 20.56° C | 44% | 1038.6 hPa | 0 mm | - | 480 W/m² | - |
| 1777513523 | 19.44° C | 45% | 1038.7 hPa | 0 mm | - | 633 W/m² | - |
| 1777512621 | 17.78° C | 47% | 1038.9 hPa | 0 mm | - | 638 W/m² | - |
| 1777511717 | 17.78° C | 48% | 1039 hPa | 0 mm | - | 306 W/m² | - |
| 1777510816 | 17.22° C | 49% | 1039.1 hPa | 0 mm | - | 207 W/m² | - |
| 1777509912 | 17.22° C | 50% | 1039.4 hPa | 0 mm | - | 475 W/m² | - |
| 1777509013 | 17.22° C | 50% | 1039.5 hPa | 0 mm | - | 378 W/m² | - |
| 1777508110 | 17.22° C | 50% | 1039.8 hPa | 0 mm | - | 436 W/m² | - |
| 1777507208 | 16.67° C | 51% | 1039.9 hPa | 0 mm | - | 257 W/m² | - |
| 1777506304 | 16.11° C | 53% | 1040 hPa | 0 mm | - | 239 W/m² | - |
| 1777505467 | 15.56° C | 54% | 1040.2 hPa | 0 mm | - | 98 W/m² | - |
| 1777504559 | 15° C | 53% | 1040.2 hPa | 0 mm | - | 72 W/m² | - |
| 1777503656 | 15° C | 54% | 1040.2 hPa | 0 mm | - | 67 W/m² | - |
| 1777502767 | 14.44° C | 54% | 1040 hPa | 0 mm | - | 60 W/m² | - |
| 1777501856 | 14.44° C | 55% | 1040 hPa | 0 mm | - | 53 W/m² | - |
| 1777500948 | 13.89° C | 55% | 1039.9 hPa | 0 mm | - | 37 W/m² | - |
| 1777500046 | 13.33° C | 56% | 1039.8 hPa | 0 mm | - | 30 W/m² | - |
| 1777499143 | 13.33° C | 56% | 1039.8 hPa | 0 mm | - | 19 W/m² | - |
| 1777498239 | 12.78° C | 57% | 1039.5 hPa | 0 mm | - | 14 W/m² | - |
* Rain latest hour (hover to see other rain measurements)
** Current wind speed in m/s (hover to see current wind gust speed)